Medicine Lodge, KS

8:16 AM CDT on May 30, 2017 (GMT -0500)
Medicine Lodge

Weather History for KP28 - September, 2013

Change the Weather History Date:

Monday, September 2, 2013

  Actual Average Record
Temperature  
Mean Temperature 74 °F 76 °F  
Max Temperature 90 °F 89 °F 107 °F (2000)
Min Temperature 57 °F 64 °F 46 °F (1952)
Degree Days  
Heating Degree Days 0 0  
Month to date heating degree days 0 0  
Since 1 July heating degree days 0 0  
Cooling Degree Days 9 11  
Month to date cooling degree days 26 23  
Year to date cooling degree days 1475 1534  
Growing Degree Days 24 (Base 50)    
Moisture  
Dew Point 55 °F    
Average Humidity 57    
Maximum Humidity 87    
Minimum Humidity 26    
Precipitation  
Precipitation 0.00 in 0.08 in 0.92 in (1923)
Month to date precipitation 0.00 0.17  
Year to date precipitation 21.64 20.52  
Snow  
Snow 0.00 in 0.00 in - ()
Month to date snowfall 0.0 0.0  
Since 1 July snowfall 0.0 0.0  
Since 1 September snowfall 0.0 0.0  
Snow Depth 0.00 in    
Sea Level Pressure  
Sea Level Pressure 30.01 in    
Wind  
Wind Speed 4 mph (NNE)    
Max Wind Speed 13 mph    
Max Gust Speed 16 mph    
T = Trace of Precipitation, MM = Missing Value Source: NWS Daily Summary

Daily Weather History Graph

Daily Weather History Graph

Search for Another Location

Airport or City:

Trip Planner

Search our weather history database for the weather conditions in past years. The results will help you decide how hot, cold, wet, or windy it might be!

Date:

Astronomy

Sep. 02, 2013 Rise Set
Actual Time 7:05 AM CDT 8:01 PM CDT
Civil Twilight 6:39 AM CDT 8:27 PM CDT
Nautical Twilight 6:07 AM CDT 8:59 PM CDT
Astronomical Twilight 5:35 AM CDT 9:31 PM CDT
Moon 4:26 AM CDT (9/2) 6:13 PM CDT (9/2)
Length of Visible Light 13h 48m
Length of Day
12h 55m
Waning Crescent, 8% of the Moon is Illuminated
Sep 2
Waning Crescent
Sep 5
New
Sep 12
First Quarter
Sep 19
Full
Sep 26
Last Quarter

Hourly Weather History & Observations

Time (CDT) Temp. Heat Index Dew Point Humidity Pressure Visibility Wind Dir Wind Speed Gust Speed Precip Events Conditions
12:56 AM 71.1 °F - 57.9 °F 63% 29.99 in - NE 9.2 mph - N/A   Unknown
1:56 AM 66.9 °F - 57.0 °F 70% 29.99 in - ENE 5.8 mph - N/A   Unknown
2:56 AM 64.9 °F - 57.0 °F 75% 29.99 in - NNE 3.5 mph - N/A   Unknown
3:56 AM 61.0 °F - 55.9 °F 83% 30.00 in - North 4.6 mph - N/A   Unknown
4:56 AM 60.1 °F - 55.9 °F 86% 30.00 in - NNE 3.5 mph - N/A   Unknown
5:56 AM 59.0 °F - 55.0 °F 87% 30.01 in - NNW 3.5 mph - N/A   Unknown
6:56 AM 59.0 °F - 55.9 °F 90% 30.03 in - NW 3.5 mph - N/A   Unknown
7:56 AM 60.1 °F - 55.9 °F 86% 30.06 in - NNW 4.6 mph - N/A   Unknown
8:56 AM 66.9 °F - 57.0 °F 70% 30.06 in - North 4.6 mph - N/A   Unknown
9:56 AM 75.9 °F - 59.0 °F 56% 30.06 in - NNW 4.6 mph - N/A   Unknown
10:56 AM 80.1 °F 80.4 °F 57.0 °F 45% 30.07 in - Calm Calm - N/A   Unknown
11:56 AM 82.0 °F 81.6 °F 55.9 °F 41% 30.06 in - Variable 4.6 mph - N/A   Unknown
12:56 PM 84.9 °F 83.7 °F 55.9 °F 37% 30.04 in - NE 6.9 mph - N/A   Unknown
1:56 PM 86.0 °F 84.2 °F 54.0 °F 33% 30.03 in - Variable 3.5 mph - N/A   Unknown
2:56 PM 88.0 °F - 52.0 °F 29% 30.01 in - North - - N/A   Unknown
3:56 PM 88.0 °F - 51.1 °F 28% 29.99 in - Calm Calm - N/A   Unknown
4:56 PM 88.0 °F - 48.9 °F 26% 29.97 in - Variable 3.5 mph - N/A   Unknown
5:56 PM 88.0 °F - 52.0 °F 29% 29.96 in - NNE 5.8 mph - N/A   Unknown
6:56 PM 84.9 °F - 52.0 °F 32% 29.96 in - NNE 8.1 mph - N/A   Unknown
7:56 PM 79.0 °F - 55.0 °F 44% 29.97 in - East 6.9 mph - N/A   Unknown
8:56 PM 73.0 °F - 55.0 °F 53% 29.98 in - ENE 8.1 mph - N/A   Unknown
9:56 PM 72.0 °F - 54.0 °F 53% 30.00 in - East 6.9 mph - N/A   Unknown
10:56 PM 71.1 °F - 54.0 °F 55% 30.01 in - ENE 4.6 mph - N/A   Unknown
11:56 PM 69.1 °F - 54.0 °F 58% 30.02 in - East 3.5 mph - N/A   Unknown